Location: Hoyos del Collado
(40.3594°N, 5.2003°W)
Time: 01:45:19
(UTC+00:00)

USA 281 - Pass Details

Date: 18 April 2024
Orbit: 1074 x 1085 km, 106.0° (Epoch: 22 May)

Event Time Altitude Azimuth Distance (km) Brightness Sun altitude
Exits shadow 19:57:23 13° 120° (ESE) 2,707 4.6 -10.5°
Maximum altitude 20:02:45 39° 57° (ENE) 1,561 3.8 -11.4°
Drops below altitude 10° 20:08:45 10° 351° (N) 2,932 6.0 -12.4°
Sets 20:11:26 0° 344° (NNW) 3,893 6.8 -12.9°
